Wetterdaten: aktuell Dienstag, 29.11.2022 09:50
Datum Zeit Temp.Auen Feucht Auen Luftdruck Regen Wind Wind Richt. Wind Richt. Sonnenschein
29.11.2022 09:50 6,7 C 94 % 1015,3 hPa 0,0 l/m 0,0 km/h (0 Bft) S 175 5 min
29.11.2022 09:45 6,7 C 94 % 1014,3 hPa 0,0 l/m 0,0 km/h (0 Bft) S-SO 155 5 min
29.11.2022 09:40 6,7 C 94 % 1014,3 hPa 0,0 l/m 0,0 km/h (0 Bft) W-SW 240 5 min
29.11.2022 09:35 6,7 C 94 % 1014,3 hPa 0,0 l/m 0,0 km/h (0 Bft) W-SW 240 5 min
29.11.2022 09:30 6,7 C 94 % 1015,3 hPa 0,0 l/m 0,0 km/h (0 Bft) O-NO 70 3 min
29.11.2022 09:25 6,7 C 94 % 1015,3 hPa 0,0 l/m 0,0 km/h (0 Bft) O-SO 120 7 min
29.11.2022 09:20 6,6 C 94 % 1015,3 hPa 0,0 l/m 0,0 km/h (0 Bft) O 80 3 min
29.11.2022 09:15 6,5 C 94 % 1014,3 hPa 0,0 l/m 0,0 km/h (0 Bft) O 85 6 min
29.11.2022 09:10 6,4 C 93 % 1014,3 hPa 0,0 l/m 0,0 km/h (0 Bft) O 80 5 min
29.11.2022 09:05 6,3 C 93 % 1014,3 hPa 0,0 l/m 0,0 km/h (0 Bft) O 85 5 min
29.11.2022 09:00 6,3 C 93 % 1014,3 hPa 0,0 l/m 0,0 km/h (0 Bft) O 85 5 min
29.11.2022 08:55 6,2 C 93 % 1014,3 hPa 0,0 l/m 0,0 km/h (0 Bft) O 80 5 min
29.11.2022 08:50 6,2 C 93 % 1014,3 hPa 0,0 l/m 0,0 km/h (0 Bft) O 80 4 min
29.11.2022 08:45 6,2 C 93 % 1014,3 hPa 0,0 l/m 0,0 km/h (0 Bft) O 85 6 min
29.11.2022 08:40 6,1 C 93 % 1014,3 hPa 0,0 l/m 0,0 km/h (0 Bft) O 80 6 min
29.11.2022 08:35 6,1 C 93 % 1014,3 hPa 0,0 l/m 0,0 km/h (0 Bft) O 80 0 min
29.11.2022 08:30 6,1 C 93 % 1014,3 hPa 0,0 l/m 0,0 km/h (0 Bft) O 80 0 min
29.11.2022 08:25 6,0 C 93 % 1014,3 hPa 0,0 l/m 0,0 km/h (0 Bft) O-NO 70 0 min
29.11.2022 08:20 6,0 C 93 % 1014,3 hPa 0,0 l/m 0,0 km/h (0 Bft) SO 130 0 min
29.11.2022 08:15 6,0 C 93 % 1014,3 hPa 0,0 l/m 0,0 km/h (0 Bft) N-NO 30 0 min
29.11.2022 08:10 6,0 C 93 % 1014,3 hPa 0,0 l/m 0,0 km/h (0 Bft) SO 130 0 min
_ Min-Zeit 00:00 00:00 01:50 - 00:00 - - -
Minimum _ 5,6 C 91 % 1011,3 hPa - 0,0 km/h (0 Bft) - - -
_ Max-Zeit 09:25 09:15 09:20 01:30 00:00 - - 09:25
Maximum _ 6,7 C 94 % 1015,3 hPa 0,3 l/m 0,0 km/h
O-NO (0 Bft)
- - 7 min
Durchschnitt _ 5,9 C 93 % 1013,1 hPa #1,8 l/m 0,0 km/h (0 Bft) - - - #1:15 h